[[{"header":{"parameterUnit":"m.s-1","parameterCategory":1,"la1":30.2991,"la2":30.254,"lo1":-89.0895,"lo2":-89.0444,"dy":0.0017,"dx":0.0017,"nx":28,"ny":28,"refTime":"2025-08-14T03:00:00:Z","depth":0,"parameterNumber":2,"parameterNumberName":"U-component_of_WINDS"},"data":[0,0,0,0,0,0,0,0,0,0,0,0,0,0,0,0,0,0,0,0,0,0,0,0,0,0,0,0,0,0,0,0,0,0,0,0,0,0,0,0,0,0,0,0,0,0,0,0,0,0,0,0,0,0,0,0,0,0,0.9331,0.9332,0,0.9492,0.9494,0.9496,0.951,0.9508,0.9507,0.9505,0.9681,0.9687,0.9693,0,0,0,0,0,0,0,0,0,0,0,0,0,0.904,0.9046,0.9331,0.9333,0.9335,0.9492,0.9494,0.9497,0.951,0.9508,0.9506,0.9504,0.9679,0.9686,0.9694,0,0,0,0,0,0,0,0,0,0,0,0,0,0.9181,0.9047,0.933,0.936,0.9364,0.9492,0.9494,0.9497,0.9511,0.9508,0.9506,0.9503,0.9676,0.9685,0.9695,0.9806,0,0,0.9724,0.9728,0,0,0,0,0,0,0,0,0.9173,0.9192,0.9354,0.9358,0.9363,0.9478,0.9456,0.9601,0.9512,0.9456,0.9505,0.9502,0.9616,0.963,0.9667,0.9814,0.9822,0.9725,0.973,0.9734,0.9737,0,0,0,0,0,0,0,0.9163,0.9185,0.9395,0.9356,0.9362,0.9368,0.9385,0.9484,0.9549,0.946,0.9462,0.948,0.9618,0.9658,0.9671,0.9825,0.9724,0.9733,0.9739,0.9742,1.0068,1.0071,0,0,0,0,0,0,0.9147,0.9176,0.939,0.94,0.9259,0.9375,0.9394,0.9444,0.9548,0.9561,0.9482,0.948,0.9643,0.966,0.9677,0.9813,0.9734,0.9743,0.9749,1.0065,1.0069,1.0072,0,0,0,0,0,0,0.914,0.9165,0.9383,0.9288,0.9317,0.9383,0.9439,0.9449,0.9488,0.9564,0.9577,0.951,0.9641,0.9664,0.9773,0.9819,0.9748,0.9756,1.0062,1.0066,1.0071,1.0085,0,0,0,0,0,0,0.9132,0.9163,0.9205,0.9289,0.9321,0.9474,0.9442,0.9454,0.9503,0.9502,0.9594,0.9607,0.9641,0.9758,0.9782,0.9831,0.9764,1.0058,1.0064,1.0069,1.0081,1.0089,1.0097,0,0,0,0,0,0.9121,0.9206,0.9207,0.9233,0.9375,0.9477,0.9495,0.953,0.9507,0.955,0.9598,0.9604,0.9809,0.9769,0.9796,0.9848,1.0055,1.0062,1.0069,1.0077,1.0088,1.0097,0,0,0,0,0,0,0.913,0.9217,0.922,0.9333,0.9396,0.9479,0.9535,0.9541,0.9616,0.9612,0.9655,0.9676,0.9782,0.9827,0.978,0.996,0.993,0.9943,0.9927,0.9938,0.9946,0.9934,0.9771,0,0,0,0,0,0.9144,0.9217,0.929,0.9383,0.9414,0.9468,0.9515,0.9535,0.9604,0.9633,0.9689,0.9758,0.9838,0.9891,0.9969,1.0086,1.0106,1.0135,1.0143,1.0149,1.016,1.0224,1.0237,1.0094,1.0094,1.0094,0,0,0.9176,0.9233,0.9277,0.9386,0.9438,0.9514,0.9492,0.9574,0.9631,0.9646,0.9751,0.9794,0.9874,0.9987,1.0039,1.0027,1.0203,1.0158,1.0162,1.017,1.0232,1.0245,1.0257,1.0099,1.0098,1.0097,0,0,0.9272,0.9322,0.9404,0.9454,0.9531,0.9566,0.9585,0.9665,0.9693,0.9797,0.9809,0.9879,1.0017,1.0072,1.0118,1.023,1.0237,1.0254,1.0297,1.0358,1.037,1.038,1.0419,1.0432,1.0264,1.0265,1.0265,0,0.9304,0.9416,0.9446,0.9526,0.9574,0.9585,0.9669,0.9718,0.9817,0.9851,0.9834,1.0003,1.0059,1.0183,1.0209,1.0247,1.0271,1.0245,1.0365,1.0375,1.0386,1.0423,1.0438,1.0266,1.0266,1.0266,1.0266,0,0.9449,0.9526,0.9583,0.9674,0.9728,0.981,0.9853,0.9905,0.9919,0.9956,1.0062,1.0127,1.0217,1.0248,1.0266,1.0374,1.0364,1.0355,1.0327,1.04,1.0436,1.0451,1.0268,1.0268,1.0267,1.0267,0,0,0.9559,0.9661,0.9681,0.9721,0.9804,0.9866,0.9948,1.0031,1.0074,1.0141,1.0211,1.0324,1.0315,1.0368,1.0392,1.0445,1.0527,1.043,1.0433,1.0446,1.065,1.0656,1.0672,1.0531,1.0534,1.0537,1.0643,0,0.9664,0.9806,0.9834,0.9958,1.003,1.004,1.0111,1.017,1.0205,1.0273,1.0313,1.0392,1.0375,1.0406,1.0459,1.0506,1.0569,1.0499,1.0599,1.0602,1.0579,1.0691,1.0699,1.0796,1.0657,1.066,1.0662,0,0.9807,0.9872,1.0002,1.0072,1.0103,1.0166,1.0243,1.0307,1.0374,1.0396,1.0451,1.0468,1.0554,1.0519,1.0638,1.059,1.0632,1.066,1.0665,1.0677,1.0637,1.0706,1.0828,1.0842,1.0684,1.0683,1.0681,0,0.9873,0.9994,1.0086,1.012,1.0205,1.0248,1.0286,1.035,1.0397,1.0465,1.0497,1.0575,1.0619,1.068,1.0717,1.0689,1.0833,1.0802,1.0855,1.0854,1.0887,1.0885,1.1018,1.0913,1.0913,1.0913,1.0912,0,0.9988,1.0067,1.0116,1.0174,1.0262,1.0293,1.038,1.0418,1.0474,1.054,1.0554,1.0616,1.0661,1.073,1.076,1.0853,1.0873,1.0894,1.0902,1.0893,1.0891,1.0923,1.0917,1.0917,1.0916,1.0915,1.0914,0,1.0078,1.0114,1.0215,1.0284,1.0303,1.0365,1.0425,1.0482,1.0515,1.0598,1.0619,1.0673,1.0754,1.0796,1.0899,1.0919,1.1024,1.1027,1.1,1.1003,1.1053,1.1048,1.1212,1.1235,1.1115,1.1116,1.1117,0,1.0149,1.0209,1.0283,1.0325,1.0362,1.0432,1.0479,1.0511,1.056,1.0638,1.0685,1.0765,1.0831,1.096,1.101,1.1088,1.1094,1.1145,1.1106,1.1094,1.1094,1.109,1.1096,1.1153,1.1154,1.1155,1.1156,0,1.0271,1.0285,1.035,1.042,1.0474,1.0532,1.059,1.0625,1.0667,1.0721,1.0801,1.0851,1.0953,1.1033,1.1113,1.1154,1.1163,1.1167,1.1184,1.1177,1.1158,1.1168,1.1019,1.1164,1.1163,1.1163,1.1162,1.1162,1.0354,1.0406,1.0465,1.0536,1.0582,1.0634,1.0689,1.0727,1.0793,1.0876,1.0891,1.0976,1.104,1.1148,1.1191,1.1259,1.1248,1.1272,1.1279,1.1284,1.1286,1.1145,1.1274,1.1273,1.1273,1.1273,1.1273,0,1.0476,1.0513,1.0578,1.0655,1.0711,1.0709,1.0771,1.0819,1.0892,1.0949,1.1012,1.1103,1.1179,1.1233,1.1311,1.1355,1.136,1.1374,1.1372,1.1381,1.1291,1.1269,1.1368,1.1368,1.1368,1.1368,1.1368,1.1368,1.0546,1.0634,1.0654,1.0765,1.0802,1.0882,1.0918,1.0966,1.1011,1.1111,1.1173,1.1205,1.1261,1.1342,1.1412,1.1426,1.1455,1.1468,1.1483,1.1398,1.1388,1.1378,1.1358,1.1474,1.1474,1.1567,1.1568,1.1569]},{"header":{"parameterUnit":"m.s-1","parameterCategory":1,"la1":30.2991,"la2":30.254,"lo1":-89.0895,"lo2":-89.0444,"dy":0.0017,"dx":0.0017,"nx":28,"ny":28,"refTime":"2025-08-14T03:00:00:Z","depth":0,"parameterNumber":3,"parameterNumberName":"V-component_of_WINDS"},"data":[0,0,0,0,0,0,0,0,0,0,0,0,0,0,0,0,0,0,0,0,0,0,0,0,0,0,0,0,0,0,0,0,0,0,0,0,0,0,0,0,0,0,0,0,0,0,0,0,0,0,0,0,0,0,0,0,0,0,2.0788,2.0786,0,2.0615,2.0613,2.0611,2.0444,2.0442,2.044,2.0438,2.0258,2.0255,2.0253,0,0,0,0,0,0,0,0,0,0,0,0,0,2.0975,2.0972,2.0789,2.0786,2.0784,2.0615,2.0612,2.061,2.0444,2.0442,2.0439,2.0437,2.0259,2.0256,2.0252,0,0,0,0,0,0,0,0,0,0,0,0,0,2.0857,2.0971,2.0789,2.0681,2.067,2.0615,2.0612,2.0609,2.0445,2.0442,2.0438,2.0436,2.026,2.0256,2.0252,2.029,0,0,2.0239,2.0237,0,0,0,0,0,0,0,0,2.0864,2.085,2.0699,2.0688,2.0676,2.0548,2.0612,2.0502,2.0446,2.053,2.0438,2.0434,2.0357,2.0345,2.0319,2.0281,2.0273,2.0239,2.0236,2.0234,2.0233,0,0,0,0,0,0,0,2.0872,2.0857,2.0719,2.0697,2.0683,2.0641,2.062,2.059,2.0463,2.0523,2.051,2.0492,2.035,2.0323,2.0313,2.0271,2.0239,2.0235,2.0232,2.0231,2.0254,2.0257,0,0,0,0,0,0,2.0897,2.0865,2.0725,2.0714,2.0764,2.064,2.0617,2.0592,2.0463,2.0441,2.0495,2.0485,2.0332,2.0319,2.0307,2.0341,2.0234,2.023,2.0228,2.0251,2.0254,2.0258,0,0,0,0,0,0,2.0902,2.0886,2.0732,2.0786,2.0763,2.064,2.0613,2.059,2.0563,2.0442,2.0419,2.0491,2.0329,2.0312,2.0295,2.0332,2.0229,2.0225,2.0247,2.0252,2.0256,2.0411,0,0,0,0,0,0,2.0908,2.0889,2.0902,2.0788,2.0761,2.0724,2.0615,2.0589,2.0557,2.0542,2.0433,2.0411,2.0325,2.0302,2.0291,2.0325,2.0221,2.0243,2.0249,2.0255,2.0402,2.0421,2.0437,0,0,0,0,0,2.0915,2.0953,2.0904,2.0888,2.0775,2.0727,2.0711,2.0612,2.0561,2.0572,2.0495,2.0415,2.0331,2.0302,2.0287,2.0321,2.024,2.0247,2.0254,2.0394,2.0417,2.0436,0,0,0,0,0,0,2.1074,2.0936,2.088,2.0882,2.0818,2.0699,2.0711,2.0639,2.0588,2.0576,2.0454,2.0431,2.0427,2.0372,2.0342,2.035,2.0274,2.0279,2.0386,2.0406,2.0423,2.0436,2.0218,0,0,0,0,0,2.111,2.1083,2.0963,2.0976,2.0947,2.0835,2.081,2.0739,2.0667,2.0639,2.056,2.0493,2.045,2.0425,2.038,2.0394,2.0367,2.041,2.0427,2.0442,2.0447,2.0449,2.0466,2.0281,2.0281,2.0281,0,0,2.1182,2.1103,2.1093,2.1006,2.0948,2.0922,2.0813,2.079,2.0769,2.0635,2.0613,2.0554,2.047,2.0469,2.0464,2.0422,2.0492,2.0451,2.0463,2.046,2.0458,2.0475,2.0491,2.0286,2.0285,2.0284,0,0,2.1301,2.1239,2.1243,2.1187,2.1101,2.1026,2.1028,2.092,2.0875,2.0851,2.075,2.0723,2.0654,2.0599,2.0562,2.0661,2.0585,2.0649,2.0738,2.0742,2.0756,2.0769,2.0803,2.0817,2.0655,2.0655,2.0656,0,2.1402,2.1359,2.1254,2.1237,2.1201,2.108,2.1082,2.1033,2.0936,2.0914,2.0869,2.0779,2.0715,2.0698,2.0722,2.0697,2.0693,2.066,2.0763,2.0774,2.0784,2.0815,2.0829,2.0664,2.0663,2.0662,2.0661,0,2.1487,2.1459,2.1472,2.1383,2.1348,2.1342,2.1234,2.1212,2.1145,2.1075,2.1052,2.0971,2.0907,2.0898,2.0832,2.0871,2.0848,2.0786,2.0707,2.0812,2.0839,2.085,2.0676,2.0673,2.067,2.0668,0,0,2.1699,2.1553,2.1559,2.1517,2.1413,2.1388,2.1376,2.1314,2.1297,2.1235,2.122,2.1165,2.1106,2.1064,2.099,2.0994,2.1076,2.0929,2.0925,2.0958,2.1113,2.1161,2.1176,2.1026,2.1028,2.1029,2.112,0,2.1799,2.177,2.1675,2.1674,2.1647,2.1532,2.152,2.1455,2.139,2.1356,2.1284,2.1246,2.1171,2.1145,2.1144,2.1067,2.1105,2.1059,2.101,2.1009,2.1033,2.119,2.124,2.133,2.113,2.1132,2.1133,0,2.1911,2.1858,2.1855,2.1752,2.1736,2.1728,2.1663,2.1633,2.1557,2.1509,2.1463,2.1382,2.1361,2.1289,2.1259,2.123,2.1204,2.1163,2.1164,2.1155,2.1077,2.1184,2.1356,2.137,2.1149,2.1148,2.1146,0,2.2066,2.1992,2.198,2.1948,2.1828,2.1825,2.1775,2.1695,2.1664,2.1607,2.1585,2.1528,2.1496,2.1452,2.1357,2.1314,2.1337,2.1257,2.1296,2.1298,2.1304,2.1305,2.1474,2.1291,2.1291,2.1291,2.1291,0,2.2186,2.2188,2.2048,2.2041,2.2039,2.1931,2.1932,2.1871,2.1801,2.1779,2.1677,2.1658,2.1534,2.1501,2.1427,2.1412,2.1399,2.1359,2.1339,2.1367,2.1372,2.1348,2.1338,2.1294,2.1293,2.1293,2.1292,0,2.2357,2.2263,2.2242,2.2131,2.2103,2.2108,2.2011,2.2,2.1929,2.1902,2.189,2.1779,2.1734,2.1636,2.1565,2.1514,2.1518,2.1483,2.1545,2.1532,2.1575,2.1572,2.1733,2.1748,2.1558,2.156,2.1562,0,2.2439,2.2438,2.2327,2.2306,2.226,2.2227,2.2195,2.2088,2.2058,2.1972,2.197,2.1918,2.1871,2.1806,2.1718,2.1663,2.1625,2.1685,2.1616,2.1644,2.1624,2.1625,2.1624,2.17,2.1703,2.1705,2.1706,0,2.2595,2.2549,2.2507,2.2449,2.2414,2.2363,2.2307,2.2295,2.2174,2.2146,2.21,2.2064,2.1992,2.1941,2.1874,2.182,2.1743,2.1729,2.1735,2.1763,2.1799,2.1779,2.1585,2.1726,2.1724,2.1722,2.1721,2.172,2.2722,2.2716,2.2637,2.2594,2.2541,2.249,2.2474,2.2402,2.2362,2.2295,2.2235,2.2195,2.2118,2.2019,2.1971,2.1938,2.1899,2.1908,2.1909,2.1913,2.1925,2.1806,2.1925,2.1924,2.1924,2.1923,2.1923,0,2.2871,2.2815,2.2777,2.2702,2.2668,2.26,2.2534,2.251,2.2476,2.2411,2.2367,2.2315,2.2265,2.2174,2.2117,2.2107,2.2071,2.2096,2.2095,2.2083,2.1963,2.1964,2.2127,2.2127,2.2127,2.2127,2.2126,2.2126,2.2945,2.293,2.2875,2.2833,2.2776,2.2737,2.2706,2.2658,2.2606,2.2552,2.2511,2.2453,2.2377,2.2313,2.2265,2.2239,2.2222,2.2259,2.2222,2.2111,2.2092,2.2074,2.2073,2.2256,2.2257,2.2344,2.2345,2.2346]}]]